| time (UTC) | temp F | wind direction | speed MPH | gust MPH | rain 1hr in | rain 24hr in | rain mn in | humidity % | barometer mb |
| 20260510031534 | 62 | 0 | 0.0 | 0.0 | 0.00 | 0.00 | 0.00 | 74 | 1012.2 |
| 20260510030034 | 63 | 0 | 0.0 | 1.0 | 0.00 | 0.00 | 0.00 | 72 | 1012.1 |
| 20260510024530 | 63 | 0 | 0.0 | 1.0 | 0.00 | 0.00 | 0.00 | 71 | 1011.9 |
| 20260510023032 | 64 | 0 | 0.0 | 2.0 | 0.00 | 0.00 | 0.00 | 70 | 1011.7 |
| 20260510021536 | 65 | 0 | 0.0 | 0.0 | 0.00 | 0.00 | 0.00 | 68 | 1011.4 |
| 20260510020033 | 67 | 0 | 0.0 | 1.0 | 0.00 | 0.00 | 0.00 | 65 | 1011.2 |
| 20260510014533 | 68 | 0 | 0.0 | 1.0 | 0.00 | 0.00 | 0.00 | 62 | 1011.1 |
| 20260510013032 | 68 | 99 | 0.0 | 2.0 | 0.00 | 0.00 | 0.00 | 63 | 1010.9 |
| 20260510011531 | 68 | 0 | 0.0 | 2.0 | 0.00 | 0.00 | 0.00 | 62 | 1010.7 |
| 20260510010032 | 69 | 113 | 0.0 | 2.0 | 0.00 | 0.00 | 0.00 | 61 | 1010.6 |
| 20260510004529 | 69 | 0 | 0.0 | 1.0 | 0.00 | 0.00 | 0.00 | 60 | 1010.3 |
| 20260510003031 | 70 | 0 | 0.0 | 2.0 | 0.00 | 0.00 | 0.00 | 58 | 1010.2 |
| 20260510001533 | 72 | 0 | 0.0 | 1.0 | 0.00 | 0.00 | 0.00 | 56 | 1010.1 |
| 20260510000034 | 73 | 0 | 0.0 | 3.0 | 0.00 | 0.00 | 0.00 | 55 | 1009.8 |
| 20260509234535 | 74 | 201 | 0.0 | 1.0 | 0.00 | 0.00 | 0.00 | 53 | 1009.7 |
| 20260509233030 | 74 | 0 | 0.0 | 3.0 | 0.00 | 0.00 | 0.00 | 53 | 1009.7 |
| 20260509231531 | 74 | 234 | 0.0 | 5.0 | 0.00 | 0.00 | 0.00 | 53 | 1009.7 |
| 20260509230032 | 74 | 165 | 0.0 | 4.0 | 0.00 | 0.00 | 0.00 | 51 | 1009.7 |
| 20260509224540 | 74 | 153 | 1.0 | 7.0 | 0.00 | 0.00 | 0.00 | 52 | 1009.8 |
| 20260509223034 | 75 | 262 | 1.0 | 6.0 | 0.00 | 0.00 | 0.00 | 51 | 1009.7 |
| 20260509221535 | 75 | 261 | 1.0 | 6.0 | 0.00 | 0.00 | 0.00 | 50 | 1009.6 |
| 20260509220032 | 75 | 180 | 1.0 | 12.0 | 0.00 | 0.00 | 0.00 | 49 | 1009.6 |
| 20260509214530 | 76 | 140 | 1.0 | 5.0 | 0.00 | 0.00 | 0.00 | 49 | 1009.6 |
| 20260509213030 | 76 | 0 | 0.0 | 7.0 | 0.00 | 0.00 | 0.00 | 48 | 1009.6 |
| 20260509211529 | 77 | 153 | 3.0 | 8.0 | 0.00 | 0.00 | 0.00 | 46 | 1009.4 |
| 20260509210034 | 79 | 176 | 2.0 | 11.0 | 0.00 | 0.00 | 0.00 | 44 | 1009.5 |
| 20260509204531 | 78 | 259 | 1.0 | 5.0 | 0.00 | 0.00 | 0.00 | 45 | 1009.2 |
| 20260509203030 | 77 | 196 | 2.0 | 11.0 | 0.00 | 0.00 | 0.00 | 45 | 1009.2 |
| 20260509201539 | 78 | 5 | 1.0 | 6.0 | 0.00 | 0.00 | 0.00 | 44 | 1009.1 |
| 20260509200030 | 78 | 336 | 3.0 | 8.0 | 0.00 | 0.00 | 0.00 | 41 | 1009.2 |
| 20260509194532 | 77 | 20 | 3.0 | 8.0 | 0.00 | 0.00 | 0.00 | 45 | 1009.4 |
| 20260509193032 | 76 | 259 | 3.0 | 12.0 | 0.00 | 0.00 | 0.00 | 45 | 1009.6 |
| 20260509191530 | 77 | 0 | 3.0 | 14.0 | 0.00 | 0.00 | 0.00 | 44 | 1009.7 |
| 20260509190030 | 75 | 331 | 1.0 | 6.0 | 0.00 | 0.00 | 0.00 | 47 | 1010.0 |
| 20260509184533 | 75 | 173 | 1.0 | 11.0 | 0.00 | 0.00 | 0.00 | 47 | 1010.3 |
| 20260509183030 | 74 | 282 | 1.0 | 10.0 | 0.00 | 0.00 | 0.00 | 50 | 1010.5 |
| 20260509181530 | 73 | 195 | 1.0 | 12.0 | 0.00 | 0.00 | 0.00 | 53 | 1010.8 |
| 20260509180032 | 72 | 275 | 1.0 | 12.0 | 0.00 | 0.00 | 0.00 | 56 | 1011.2 |
| 20260509174531 | 72 | 309 | 4.0 | 11.0 | 0.00 | 0.00 | 0.00 | 55 | 1011.3 |
| 20260509173032 | 71 | 279 | 3.0 | 13.0 | 0.00 | 0.00 | 0.00 | 58 | 1011.7 |
| 20260509171537 | 71 | 291 | 2.0 | 7.0 | 0.00 | 0.00 | 0.00 | 60 | 1011.7 |
| 20260509170033 | 69 | 208 | 2.0 | 6.0 | 0.00 | 0.00 | 0.00 | 60 | 1011.6 |
| 20260509164531 | 68 | 267 | 2.0 | 10.0 | 0.00 | 0.00 | 0.00 | 60 | 1011.7 |
| 20260509163034 | 68 | 60 | 2.0 | 10.0 | 0.00 | 0.00 | 0.00 | 61 | 1011.7 |
| 20260509161536 | 67 | 177 | 1.0 | 8.0 | 0.00 | 0.00 | 0.00 | 62 | 1011.8 |
| 20260509160030 | 67 | 332 | 1.0 | 3.0 | 0.00 | 0.00 | 0.00 | 66 | 1012.0 |
| 20260509154532 | 65 | 74 | 1.0 | 6.0 | 0.00 | 0.00 | 0.00 | 65 | 1012.1 |
| 20260509153029 | 64 | 0 | 1.0 | 9.0 | 0.00 | 0.00 | 0.00 | 66 | 1012.3 |
| 20260509151530 | 64 | 76 | 2.0 | 8.0 | 0.00 | 0.00 | 0.00 | 63 | 1012.4 |
| 20260509150036 | 64 | 174 | 1.0 | 6.0 | 0.00 | 0.00 | 0.00 | 65 | 1012.5 |
| 20260509144534 | 62 | 81 | 1.0 | 5.0 | 0.00 | 0.00 | 0.00 | 65 | 1012.4 |
| 20260509143035 | 60 | 273 | 2.0 | 8.0 | 0.00 | 0.00 | 0.00 | 66 | 1012.2 |
| 20260509141534 | 60 | 261 | 1.0 | 6.0 | 0.00 | 0.00 | 0.00 | 68 | 1012.4 |
| 20260509140032 | 58 | 92 | 0.0 | 5.0 | 0.00 | 0.00 | 0.00 | 69 | 1012.6 |
| 20260509134530 | 58 | 87 | 0.0 | 3.0 | 0.00 | 0.00 | 0.00 | 68 | 1012.7 |
| 20260509133029 | 56 | 250 | 0.0 | 2.0 | 0.00 | 0.00 | 0.00 | 69 | 1012.8 |
| 20260509131545 | 56 | 300 | 0.0 | 6.0 | 0.00 | 0.00 | 0.00 | 69 | 1012.9 |
| 20260509130039 | 56 | 161 | 1.0 | 5.0 | 0.00 | 0.00 | 0.00 | 69 | 1013.0 |
| 20260509124530 | 55 | 126 | 0.0 | 3.0 | 0.00 | 0.00 | 0.00 | 69 | 1013.0 |
| 20260509123032 | 55 | 0 | 0.0 | 5.0 | 0.00 | 0.00 | 0.00 | 68 | 1013.0 |
| 20260509121532 | 54 | 0 | 0.0 | 3.0 | 0.00 | 0.00 | 0.00 | 70 | 1013.1 |
| 20260509120032 | 54 | 58 | 1.0 | 3.0 | 0.00 | 0.00 | 0.00 | 69 | 1013.0 |
| 20260509114538 | 54 | 0 | 1.0 | 7.0 | 0.00 | 0.00 | 0.00 | 67 | 1012.8 |
| 20260509113034 | 53 | 69 | 1.0 | 5.0 | 0.00 | 0.00 | 0.00 | 67 | 1012.9 |
| 20260509111529 | 53 | 0 | 0.0 | 4.0 | 0.00 | 0.00 | 0.00 | 67 | 1012.7 |
| 20260509110030 | 53 | 0 | 0.0 | 4.0 | 0.00 | 0.00 | 0.00 | 67 | 1012.8 |
| 20260509104532 | 52 | 0 | 1.0 | 4.0 | 0.00 | 0.00 | 0.00 | 68 | 1012.8 |
| 20260509103030 | 52 | 0 | 0.0 | 2.0 | 0.00 | 0.00 | 0.00 | 69 | 1012.8 |
| 20260509101543 | 51 | 115 | 0.0 | 2.0 | 0.00 | 0.00 | 0.00 | 70 | 1012.8 |
| 20260509100030 | 51 | 0 | 0.0 | 0.0 | 0.00 | 0.00 | 0.00 | 71 | 1012.8 |
| 20260509094530 | 51 | 0 | 0.0 | 1.0 | 0.00 | 0.00 | 0.00 | 70 | 1012.7 |
| 20260509093033 | 51 | 0 | 0.0 | 2.0 | 0.00 | 0.00 | 0.00 | 69 | 1012.7 |
| 20260509091533 | 52 | 0 | 0.0 | 0.0 | 0.00 | 0.00 | 0.00 | 68 | 1012.9 |
| 20260509090030 | 52 | 0 | 0.0 | 1.0 | 0.00 | 0.00 | 0.00 | 68 | 1012.9 |
| 20260509084530 | 52 | 0 | 0.0 | 1.0 | 0.00 | 0.00 | 0.00 | 67 | 1012.9 |
| 20260509083041 | 53 | 115 | 0.0 | 2.0 | 0.00 | 0.00 | 0.00 | 65 | 1013.3 |
| 20260509081533 | 54 | 115 | 0.0 | 3.0 | 0.00 | 0.00 | 0.00 | 64 | 1013.3 |
| 20260509080034 | 54 | 0 | 0.0 | 0.0 | 0.00 | 0.00 | 0.00 | 62 | 1013.4 |
| 20260509074531 | 55 | 0 | 0.0 | 0.0 | 0.00 | 0.00 | 0.00 | 63 | 1013.4 |
| 20260509073035 | 56 | 0 | 0.0 | 2.0 | 0.00 | 0.00 | 0.00 | 58 | 1013.5 |
| 20260509071532 | 56 | 0 | 0.0 | 2.0 | 0.00 | 0.00 | 0.00 | 57 | 1013.4 |
| 20260509070031 | 56 | 0 | 0.0 | 3.0 | 0.00 | 0.00 | 0.00 | 57 | 1013.9 |
| 20260509064533 | 56 | 131 | 0.0 | 6.0 | 0.00 | 0.00 | 0.00 | 57 | 1014.0 |
| 20260509063030 | 56 | 0 | 0.0 | 1.0 | 0.00 | 0.00 | 0.00 | 56 | 1014.0 |
| 20260509061532 | 56 | 0 | 0.0 | 4.0 | 0.00 | 0.00 | 0.00 | 55 | 1014.1 |
| 20260509060030 | 57 | 101 | 1.0 | 4.0 | 0.00 | 0.00 | 0.00 | 55 | 1014.3 |
| 20260509054530 | 57 | 66 | 0.0 | 3.0 | 0.00 | 0.00 | 0.00 | 54 | 1014.3 |
| 20260509053030 | 57 | 100 | 0.0 | 5.0 | 0.00 | 0.00 | 0.00 | 53 | 1014.1 |
| 20260509051536 | 57 | 126 | 1.0 | 5.0 | 0.00 | 0.00 | 0.00 | 54 | 1014.2 |
| 20260509050034 | 57 | 92 | 0.0 | 3.0 | 0.00 | 0.00 | 0.00 | 54 | 1014.1 |
| 20260509044533 | 58 | 91 | 0.0 | 2.0 | 0.00 | 0.00 | 0.00 | 53 | 1014.0 |
| 20260509043033 | 58 | 0 | 0.0 | 4.0 | 0.00 | 0.00 | 0.00 | 52 | 1014.1 |
| 20260509041530 | 58 | 185 | 1.0 | 5.0 | 0.00 | 0.00 | 0.00 | 52 | 1014.1 |
| 20260509040036 | 59 | 134 | 0.0 | 3.0 | 0.00 | 0.00 | 0.00 | 52 | 1014.2 |
| 20260509034544 | 59 | 281 | 1.0 | 4.0 | 0.00 | 0.00 | 0.00 | 52 | 1014.3 |
| 20260509033029 | 59 | 79 | 0.0 | 3.0 | 0.00 | 0.00 | 0.00 | 51 | 1014.4 |